Погода в Теплом

Россия / Курская область     51°51′06″N   37°19′51″E
темп.,
°C
ветер,
м/с
пор.,
м/с
влажн.,
%
обл.,
%
осадки,
мм/ч
давл.,
гПа
погр.,
м
7 марта, вс
вс700:00−11з46900 0.0 102191
03:00−12зюз47930 0.0 1020120
06:00−10зюз5119670 0.0 1018223
09:00−7юз8168376 0.0 1016583
12:00−4юз101777100 0.0 1012953
15:00−1зюз111878100 0.0 10081271
18:00−2зюз111990100 0.2 10051147
21:00−1зюз111892100 0.4 10041116
8 марта, пн
пн800:00−3зсз5128399 1.5 1005649
03:00−4зюз478399 1.8 1005134
06:00−4юз4995100 0.1 1004315
09:00−4з51096100 0.3 1005575
12:00−2з61085100 0.3 10061180
15:00−3зсз6980100 0.5 10071071
18:00−6з4888100 0.0 1008205
21:00−6з499498 0.1 1010246
9 марта, вт
вт900:00−7сз3695100 0.6 1011165
03:00−10сз349597 0.7 101286
06:00−13сз349686 0.1 101454
09:00−12зсз359682 0.1 1015173
12:00−8сз469197 0.1 1017486
15:00−7сз568698 0.1 1018842
18:00−10сз3792100 0.1 1019206
21:00−14сз349382 0.1 102150
10 марта, ср
ср1000:00−16сз33964 0.0 102231
03:00−17сз23952 0.0 102424
06:00−18сз23970 0.0 102521
09:00−16ссз23940 0.0 1026102
12:00−13с228560 0.0 1026252
15:00−11св118379 0.0 1027292
18:00−13в1190100 0.0 102620
21:00−14вюв128997 0.0 102820
11 марта, чт
чт1100:00−16вюв239058 0.0 102827
03:00−16юв238970 0.0 102921
06:00−16ююв338790 0.0 102930
09:00−13ююв368881 0.0 1029145
12:00−8ю468441 0.0 1029383
15:00−5ю477830 0.0 1028712
18:00−8ююв44790 0.0 102757
21:00−9ююв58750 0.0 1026140